EHI
0 1 2 2 2 3 4 4 5 8 10 11 10 8 5 4 4 6 6 6 6 5 4 3 4 4 2 1 0 1 2 3 2 1 0 0 0 0 0 0 0 0 0
1 0 1 1 1 1 1 2 4 6 8 9 9 7 5 3 3 3 3 4 5 4 3 4 4 2 1 0 0 0 1 2 2 1 0 0 0 0 0 0 0 0 0
1 0 0 0 0 0 0 1 3 4 5 6 5 5 4 2 1 1 1 2 2 2 2 3 2 1 0 0 0 0 0 1 1 1 0 0 0 0 0 0 0 0 0
1 0 0 0 0 0 0 0 1 2 3 3 2 2 1 0 0 0 0 0 1 1 1 1 1 1 1 0 0 0 0 0 0 0 0 0 0 0 0 0 0 0 0
1 0 0 0 0 0 0 0 0 1 2 1 1 0 0 0 0 0 0 0 0 0 0 1 1 2 2 1 0 0 0 0 0 0 0 0 0 0 0 0 0 0 0
1 0 0 0 0 0 0 0 0 0 1 1 0 0 0 0 0 0 0 0 0 0 0 1 2 3 3 2 1 0 0 0 0 0 0 0 0 0 0 0 0 0 0
1 0 0 0 0 0 0 0 0 1 1 1 0 0 0 0 0 0 0 0 0 0 0 1 1 1 2 2 2 1 0 0 0 0 0 0 0 0 0 0 0 0 0
0 0 0 1 0 0 0 0 0 1 1 1 0 0 0 0 0 0 0 0 0 0 0 0 0 0 1 2 2 2 2 2 1 0 0 0 0 0 0 0 0 0 0
0 0 0 0 0 0 0 0 0 1 1 0 0 0 0 0 0 0 0 0 0 0 0 0 0 0 0 1 2 2 3 3 1 0 0 0 0 0 0 0 0 0 0
0 0 0 0 0 0 0 0 0 0 0 0 0 0 0 0 0 0 0 0 0 0 0 0 0 0 0 0 1 1 3 2 1 0 0 0 0 0 0 1 0 0 0
0 0 0 0 0 0 0 0 0 0 0 0 0 0 0 0 0 0 0 0 0 0 0 0 0 0 0 0 0 1 1 1 0 0 0 0 0 0 1 1 0 0 0
0 0 0 0 0 0 0 0 0 0 0 0 0 0 0 0 0 0 0 0 0 0 0 0 0 0 0 0 0 0 0 0 0 0 0 0 0 1 1 1 0 0 0
0 0 0 0 0 0 0 0 0 0 0 0 0 0 0 0 0 0 0 0 0 0 0 0 0 0 0 0 0 0 0 0 0 0 1 1 1 1 1 1 0 0 1
0 0 0 0 0 0 0 0 0 0 0 0 0 0 0 0 0 0 0 0 0 0 0 0 0 0 0 0 0 0 0 0 0 0 1 2 2 1 1 1 0 0 1
0 0 0 0 0 0 0 0 0 0 0 0 0 0 0 0 0 0 0 0 0 0 0 0 0 0 0 0 0 0 0 0 0 0 1 2 3 3 2 1 0 0 1
0 0 0 0 0 0 0 0 0 0 0 0 0 0 0 0 0 0 0 0 0 0 0 0 0 0 0 0 0 0 0 0 0 0 0 1 2 3 3 1 0 0 0
0 0 0 0 0 0 0 0 0 0 0 0 0 0 0 0 0 0 0 0 0 0 0 0 0 0 0 0 0 0 0 0 0 0 0 0 0 1 2 1 0 0 0
0 0 0 0 0 0 0 0 0 0 0 0 0 0 0 0 0 0 0 0 0 0 0 0 0 0 0 0 0 0 0 0 0 0 0 0 0 0 1 1 0 0 0
0 0 0 0 0 0 0 0 0 0 0 0 0 0 0 0 0 0 0 0 0 0 0 0 0 0 0 0 0 0 0 0 0 0 0 0 0 0 0 0 0 0 0
0 0 0 0 0 0 0 0 0 0 0 0 0 0 0 0 0 0 0 0 0 0 0 0 0 0 0 0 0 0 0 0 0 0 0 0 0 0 0 0 0 0 0
0 0 0 0 0 0 0 0 0 0 0 0 0 0 0 0 0 0 0 0 0 0 0 0 0 0 0 0 0 0 0 0 0 0 0 0 0 0 0 0 0 0 0
0 0 0 0 0 0 0 0 0 0 0 0 0 0 0 0 0 0 0 0 0 0 0 0 0 0 0 0 0 0 0 0 0 0 0 0 0 0 0 0 0 0 0
0 0 0 0 0 0 0 0 0 0 0 0 0 0 0 0 0 0 0 0 0 0 0 0 0 0 0 0 0 0 0 0 0 0 0 0 0 0 0 0 0 0 0
0 0 0 0 0 0 0 0 0 0 0 0 0 0 0 0 0 0 0 0 0 0 0 0 0 0 0 0 0 0 0 0 0 0 0 0 0 0 0 0 0 0 0
0 0 0 0 0 0 0 0 0 0 0 0 0 0 0 0 0 0 0 0 0 0 0 0 0 0 0 0 0 0 0 0 0 0 0 0 0 0 0 0 0 0 0
0 0 0 0 0 0 0 0 0 0 0 0 0 0 0 0 0 0 0 0 0 0 0 0 0 0 0 0 0 0 0 0 0 0 0 0 0 0 0 0 0 0 0
Wind_Speed
1 0 4 8 9 10 11 11 12 11 12 12 11 11 11 10 9 9 9 8 8 7 7 7 7 6 6 6 6 6 6 6 5 5 5 4 4 3 3 4 4 2 4
1 2 6 8 10 10 11 11 11 11 11 11 11 10 10 9 9 8 8 7 7 7 7 7 6 6 5 5 5 6 5 5 5 5 5 5 4 3 2 3 3 2 4
3 3 6 9 10 10 10 11 11 11 11 11 10 10 9 8 8 8 7 7 7 6 6 6 5 5 5 5 5 6 6 5 5 5 5 3 3 2 2 2 3 3 4
4 4 5 9 10 10 10 10 10 10 10 10 9 9 8 8 7 7 7 7 6 6 6 5 5 5 5 5 5 6 6 6 5 5 3 3 3 2 2 2 3 3 3
4 4 5 9 9 9 9 9 9 10 9 9 9 8 8 7 7 6 6 6 6 6 6 5 5 5 5 6 6 6 6 6 6 5 3 3 2 2 2 2 2 2 3
4 3 4 8 9 9 9 9 9 8 8 8 8 8 7 7 6 6 5 5 5 5 5 5 6 6 6 6 7 7 6 5 5 3 2 2 2 2 2 1 2 2 3
4 3 3 7 8 8 8 8 8 8 7 7 7 7 6 6 6 5 5 5 5 5 6 6 6 6 6 6 7 6 6 5 3 2 2 2 3 2 2 1 1 2 2
4 3 3 6 7 7 7 7 7 7 7 7 7 7 7 6 6 6 5 5 5 5 6 6 6 6 7 7 7 6 6 5 3 2 2 2 3 2 2 1 1 1 2
4 3 3 3 4 5 5 6 6 6 6 6 6 6 6 7 7 7 7 6 6 6 6 6 6 6 7 7 7 7 6 5 2 1 2 2 3 3 2 2 1 1 2
3 2 2 3 3 3 3 4 5 6 6 7 7 7 7 8 8 8 7 7 7 7 7 7 7 7 7 7 7 7 6 4 2 2 2 3 4 3 2 2 1 1 1
1 1 1 1 2 2 2 4 5 6 7 7 6 8 7 4 4 5 7 8 8 8 8 9 8 8 8 7 8 8 5 2 2 2 2 4 4 3 2 2 2 2 1
1 0 0 0 1 2 2 3 3 3 4 4 4 4 3 3 3 5 7 9 9 9 9 9 9 8 6 3 5 6 2 2 2 2 2 5 4 4 3 2 2 2 2
1 0 1 1 1 1 1 2 2 2 2 3 4 4 3 3 3 4 3 4 5 7 5 6 6 4 3 3 3 3 3 2 1 2 3 6 5 5 4 3 2 2 1
1 1 1 1 1 1 2 2 2 2 2 2 3 3 3 2 3 3 2 3 3 2 3 3 3 4 4 4 3 3 3 2 2 2 3 6 6 6 5 3 3 2 1
1 1 1 2 1 1 2 1 2 1 2 2 2 3 3 2 2 2 2 3 3 3 3 3 3 4 4 4 4 3 3 3 3 2 2 6 6 6 6 4 3 3 2
1 1 1 2 2 2 2 1 1 1 1 2 2 3 3 2 2 2 3 3 3 3 2 2 3 3 2 2 3 4 3 3 3 3 2 4 6 6 6 5 4 3 3
2 2 2 2 2 2 2 1 1 2 2 2 2 3 3 2 2 2 2 3 3 3 3 3 3 3 3 3 3 3 3 3 3 3 3 2 3 5 6 5 4 4 3
3 2 1 2 3 2 2 2 2 2 2 2 2 2 3 3 3 2 2 2 3 3 3 2 3 3 3 3 3 3 3 3 3 3 2 2 2 2 4 5 4 4 4
3 3 2 3 2 2 2 2 2 2 2 2 2 2 3 3 3 2 2 2 3 3 3 3 2 2 2 4 3 2 2 2 3 3 3 3 3 2 2 4 4 4 4
3 3 3 2 3 3 3 3 3 3 3 2 2 2 3 3 3 2 2 3 3 3 3 3 3 2 2 3 3 3 3 2 2 2 3 3 3 3 2 2 2 3 3
3 3 2 2 2 2 2 1 1 1 2 2 2 3 3 3 3 3 2 3 3 2 3 3 2 3 3 3 3 4 4 3 2 2 2 2 3 3 2 2 1 1 1
2 1 1 1 2 2 1 1 1 0 1 1 2 3 3 3 3 3 2 2 3 2 4 3 2 2 2 3 2 2 4 5 4 3 3 3 3 3 3 2 2 1 1
1 1 1 1 1 1 2 2 2 2 2 3 3 3 4 4 3 2 2 2 2 2 2 3 2 1 2 2 1 1 1 2 4 4 3 3 4 3 3 2 2 2 1
0 1 2 2 2 2 2 2 2 1 1 1 2 2 4 4 4 3 2 2 2 2 2 3 2 1 0 2 2 1 1 2 1 4 4 3 4 3 3 3 3 2 2
1 2 2 3 3 3 3 3 2 1 0 1 2 3 4 4 4 4 3 2 2 2 2 3 2 1 0 1 1 1 1 0 1 1 3 4 4 3 3 2 2 2 2
2 2 3 3 3 3 3 3 2 1 1 2 3 3 3 3 3 4 3 3 3 2 3 2 2 2 1 2 1 1 1 1 1 1 2 3 3 4 3 2 2 2 2
Wind_Direction
348 313 109 104 103 101 98 97 95 93 93 90 90 92 92 90 86 83 80 79 79 78 76 74 70 66 63 60 56 50 49 48 47 48 46 45 44 48 50 50 58 47 51
129 103 103 101 101 100 98 95 94 92 90 87 87 88 87 87 84 78 75 73 73 69 65 62 60 57 54 50 44 39 35 35 37 38 39 30 27 38 51 54 63 60 55
99 89 97 99 98 98 97 93 91 90 88 87 85 84 82 80 78 75 70 67 65 61 57 53 49 42 38 34 30 27 22 20 22 30 38 20 6 29 46 59 64 60 50
102 90 99 102 96 95 94 91 89 87 85 85 84 82 80 78 75 70 65 62 57 54 51 45 37 28 25 22 18 15 14 12 14 28 31 6 353 15 32 51 62 59 48
99 90 104 103 98 95 93 91 88 85 83 82 81 79 75 73 70 66 62 57 52 47 44 36 27 23 19 14 9 9 10 13 18 25 17 4 353 351 19 40 55 50 50
99 87 103 104 99 96 92 89 86 83 81 78 74 70 64 59 58 54 50 47 42 35 32 24 11 7 4 2 2 2 4 7 20 19 9 354 344 345 4 25 46 38 46
108 90 98 106 100 95 91 87 84 81 77 73 67 59 51 43 38 34 26 23 25 21 15 8 359 354 351 349 350 354 358 360 18 18 3 341 324 335 350 352 24 32 41
117 95 83 99 99 94 87 81 76 72 67 60 52 44 35 30 24 17 14 9 7 5 0 356 352 349 347 344 345 348 352 354 2 0 335 317 311 330 333 329 346 24 19
92 82 58 55 61 68 69 65 60 55 49 44 41 34 25 21 16 12 7 3 1 0 0 357 351 348 346 346 346 348 351 357 6 333 315 309 304 320 330 339 321 342 1
79 73 64 52 48 40 32 37 42 40 37 34 31 29 26 21 14 10 4 0 4 9 10 8 2 359 358 356 353 354 359 6 354 330 313 291 287 292 319 338 330 313 337
95 65 69 55 39 29 15 29 30 30 31 31 23 25 27 14 8 7 7 8 7 9 10 10 8 9 13 8 4 5 8 5 337 319 297 289 288 287 300 319 307 311 315
183 238 118 83 33 18 19 35 20 25 25 26 23 25 23 17 13 22 13 16 13 13 12 12 16 18 19 4 357 3 5 354 343 320 308 305 301 292 285 281 278 288 307
179 189 137 133 54 35 25 28 25 20 20 19 23 28 29 26 18 21 16 11 8 12 9 6 10 11 9 359 351 349 347 347 333 321 317 318 312 302 288 273 269 263 271
121 150 99 113 93 50 47 41 39 30 21 20 16 26 39 33 22 13 17 4 5 359 357 1 358 358 0 356 355 351 347 342 327 319 310 319 313 307 301 286 275 277 278
122 131 111 113 107 81 67 49 58 40 34 27 23 27 44 49 27 12 8 7 1 356 357 352 353 356 0 354 354 357 350 342 331 326 319 323 320 312 305 293 280 274 281
141 120 87 91 105 102 87 73 63 54 46 37 30 27 39 50 40 24 12 4 356 350 347 347 347 350 347 347 349 347 342 341 334 328 321 326 326 321 311 297 289 277 278
137 114 112 114 92 98 94 80 71 57 52 40 26 23 30 40 39 33 19 1 346 347 356 360 356 357 357 356 348 340 339 337 335 328 326 321 322 326 324 306 293 286 278
125 117 106 97 93 87 79 69 58 52 48 35 24 20 21 29 34 32 24 359 343 352 3 2 2 358 354 352 341 334 337 333 332 324 324 320 319 319 323 319 301 287 277
135 126 97 79 82 78 70 62 55 50 42 24 21 18 10 20 27 32 21 354 352 2 4 358 11 0 345 342 330 332 334 333 330 334 332 322 315 308 306 314 314 302 281
114 106 98 81 75 78 68 56 45 39 26 18 17 7 6 8 11 19 13 2 6 10 1 0 353 352 335 328 333 341 330 332 339 347 336 333 323 314 309 307 315 313 300
90 93 98 97 84 80 67 66 56 23 356 355 356 357 360 2 5 11 6 360 6 8 351 351 353 354 349 344 3 345 336 343 1 356 347 344 339 331 324 311 303 300 309
98 111 116 115 103 91 85 105 110 101 340 327 335 352 358 356 355 3 4 348 350 354 357 1 10 359 348 9 33 18 351 345 344 353 350 351 340 334 334 326 313 299 299
80 126 141 135 115 100 94 79 54 38 16 9 359 351 343 341 339 341 346 346 348 357 342 340 353 16 343 345 35 91 65 314 314 326 341 347 343 339 330 325 327 319 294
130 87 93 103 92 81 91 88 88 84 24 313 317 322 330 344 343 339 335 338 340 342 332 325 352 329 357 330 336 3 190 202 288 323 325 332 335 332 326 331 331 325 317
97 95 91 90 73 61 73 85 87 69 346 324 335 340 340 340 343 344 340 337 331 322 319 326 336 330 271 255 281 299 321 312 211 221 306 322 332 319 317 313 310 311 310
84 86 88 90 67 56 67 68 79 67 16 5 350 343 339 335 335 343 343 339 323 316 311 311 312 311 284 263 257 238 222 232 233 207 258 298 311 306 315 314 307 305 304